LEMUR 2 AUSTINTACIOUS

Last updated on Sat Apr 08 2017 01:15:05 GMT+0100 (British Summer Time)

1 42068U 98067LD 17096.95684029 .00022646 00000-0 32706-3 0 9997 2 42068 51.6430 33.1159 0009141 39.0589 321.1041 15.55818004 4847

Satellite not in orbit